X  Close Regnbyger indtil i eftermiddag.
Conditions Temperature Feels Precipitation Wind Wind Direction UV index Pressure
10:00 rain Mulighed for lette regnbyger 7° 3° 0.54 mm 64% 8-12 m/s ESE ESE - 1010,9
11:00 rain Mulighed for lette regnbyger 7° 3° 0.51 mm 62% 9-13 m/s ESE ESE - 1010,8
12:00 rain Mulighed for lette regnbyger 7° 3° 0.45 mm 61% 9-14 m/s ESE ESE - 1010,8
13:00 rain Mulighed for let støvregn 7° 3° 0.38 mm 60% 9-14 m/s ESE ESE - 1010,7
14:00 rain Mulighed for let støvregn 8° 4° 0.3 mm 50% 8-13 m/s SE SE - 1010,6
15:00 cloudy Overskyet 8° 4° 0.21 mm 34% 7-11 m/s SE SE - 1010,5
16:00 cloudy Overskyet 8° 5° 0.13 mm 24% 6-10 m/s SSE SSE - 1010,6
17:00 cloudy Overskyet 8° 5° 0.07 mm 16% 6-10 m/s SSE SSE - 1011,1
18:00 cloudy Overskyet 8° 5° 0.02 mm 12% 6-10 m/s SSE SSE - 1011,9
19:00 cloudy Overskyet 8° 4° 0.01 mm 7% 6-10 m/s SSE SSE - 1012,5
20:00 cloudy Overskyet 8° 4° - 6-10 m/s SSE SSE - 1012,8
21:00 cloudy Overskyet 8° 5° - 5-9 m/s SSE SSE - 1013,3
22:00 cloudy Overskyet 8° - 5-8 m/s SSE SSE - 1013,4
23:00 cloudy Overskyet 8° - 5-8 m/s SE SE - 1013,8
00:00 cloudy Overskyet 8° 4° 0.02 mm 13% 5-9 m/s SE SE - 1014,4
01:00 cloudy Overskyet 7° 4° 0.03 mm 15% 5-10 m/s SE SE - 1014,5
02:00 cloudy Overskyet 7° 4° 0.05 mm 14% 6-10 m/s SE SE - 1014,5
03:00 cloudy Overskyet 7° 4° 0.06 mm 13% 6-11 m/s SE SE - 1014,4
04:00 cloudy Overskyet 7° 4° 0.06 mm 12% 7-11 m/s SE SE - 1014,4
05:00 cloudy Overskyet 7° 4° 0.05 mm 9% 7-12 m/s ESE ESE - 1014,6
06:00 cloudy Overskyet 7° 4° 0.03 mm 7% 7-12 m/s ESE ESE - 1014,9
07:00 cloudy Overskyet 7° 3° 0.02 mm 7% 8-12 m/s ESE ESE - 1015,2
08:00 cloudy Overskyet 7° 3° 0.02 mm 8% 8-12 m/s ESE ESE - 1015,4
09:00 cloudy Overskyet 7° 3° 0.02 mm 7% 8-11 m/s ESE ESE - 1015,6
10:00 cloudy Overskyet 7° 3° 0.02 mm 8% 8-11 m/s ESE ESE - 1015,8
11:00 cloudy Overskyet 7° 3° 0.02 mm 7% 7-10 m/s ESE ESE - 1016,1
12:00 cloudy Overskyet 7° 4° 0.01 mm 6% 7-10 m/s ESE ESE - 1016,2
13:00 cloudy Overskyet 7° 4° 0.01 mm 5% 7-9 m/s ESE ESE - 1016,4
14:00 cloudy Overskyet 7° 3° - 7-9 m/s ESE ESE - 1016,3
15:00 cloudy Overskyet 7° 3° - 7-9 m/s East Easterly - 1016,5
16:00 cloudy Overskyet 7° 3° - 7-9 m/s East Easterly - 1016,7
17:00 cloudy Overskyet 7° 3° - 8-10 m/s East Easterly - 1016,9
18:00 cloudy Overskyet 7° 2° 0.01 mm 2% 8-11 m/s East Easterly - 1017,3
19:00 cloudy Overskyet 6° 2° 0.01 mm 2% 8-12 m/s East Easterly - 1017,6
20:00 cloudy Overskyet 6° 2° 0.01 mm 2% 8-12 m/s East Easterly - 1017,8
21:00 cloudy Overskyet 6° 1° 0.02 mm 2% 8-11 m/s ESE ESE - 1017,9
22:00 cloudy Overskyet 6° 1° 0.02 mm 2% 8-11 m/s ESE ESE - 1018,0
23:00 cloudy Overskyet 6° 1° 0.01 mm 2% 8-10 m/s ESE ESE - 1018,1
00:00 cloudy Overskyet 5° 1° 0.01 mm 2% 8-10 m/s ESE ESE - 1018,2
01:00 cloudy Overskyet 5° 1° 0.01 mm 2% 8-9 m/s ESE ESE - 1018,3
02:00 cloudy Overskyet 5° 1° 0.01 mm 2% 8-9 m/s ESE ESE - 1018,3
03:00 cloudy Overskyet 5° 1° 0.01 mm 2% 7-9 m/s ESE ESE - 1018,2
04:00 cloudy Overskyet 5° 1° 0.01 mm 2% 7-9 m/s ESE ESE - 1018,2
05:00 cloudy Overskyet 5° 1° 0.02 mm 1% 7-9 m/s ESE ESE - 1018,3
06:00 cloudy Overskyet 5° 1° 0.02 mm 1% 7-8 m/s East Easterly - 1018,4
07:00 cloudy Overskyet 5° 1° 0.03 mm 2% 7-8 m/s East Easterly - 1018,5
08:00 cloudy Overskyet 5° 1° 0.03 mm 2% 7-8 m/s East Easterly - 1018,7
09:00 cloudy Overskyet 5° 1° 0.02 mm 2% 8-9 m/s East Easterly - 1018,7
10:00 cloudy Overskyet 6° 1° 0.02 mm 2% 8-9 m/s ESE ESE - 1018,8